• In Hungary
  • List of Countries
  • For 7 days
  • Water Temperature
  • Satellite Maps
  • Weather Map
  • News
  • Weather Widgets
  • user-avatar
    Login

    Hourly Weather Aknazarovo

    Today, 21 September, Friday

    Time Temperature Precipitation Wind Pressure Humidity
    00:00 +9°C° 0 mm 3 mps 737 mmHg 91%
    01:00 +8°C° 0 mm 3 mps 737 mmHg 90%
    02:00 +8°C° 0 mm 3 mps 738 mmHg 92%
    03:00 +8°C° 0 mm 3 mps 738 mmHg 93%
    04:00 +7°C° 0 mm 3 mps 738 mmHg 94%
    05:00 +7°C° 0 mm 3 mps 738 mmHg 93%
    06:00 +7°C° 0 mm 3 mps 738 mmHg 93%
    07:00 +7°C° 0 mm 3 mps 739 mmHg 92%
    08:00 +8°C° 0 mm 3 mps 739 mmHg 89%
    09:00 +8°C° 0 mm 4 mps 739 mmHg 86%
    10:00 +10°C° 0 mm 4 mps 740 mmHg 83%
    11:00 +11°C° 0 mm 4 mps 740 mmHg 82%
    12:00 +11°C° 0 mm 4 mps 740 mmHg 80%
    13:00 +12°C° 0 mm 4 mps 740 mmHg 78%
    14:00 +12°C° 0 mm 4 mps 741 mmHg 78%
    15:00 +12°C° 0 mm 4 mps 741 mmHg 78%
    16:00 +12°C° 0 mm 4 mps 741 mmHg 78%
    17:00 +11°C° 0 mm 3 mps 741 mmHg 83%
    18:00 +11°C° 0 mm 3 mps 742 mmHg 87%
    19:00 +10°C° 0 mm 2 mps 742 mmHg 91%
    20:00 +9°C° 0 mm 2 mps 743 mmHg 92%
    21:00 +9°C° 0 mm 2 mps 743 mmHg 93%
    22:00 +9°C° 0 mm 2 mps 743 mmHg 94%
    23:00 +9°C° 0 mm 2 mps 744 mmHg 94%

    Tomorrow, 22 September, Saturday

    Time Temperature Precipitation Wind Pressure Humidity
    00:00 +8°C° 0 mm 2 mps 744 mmHg 95%
    01:00 +8°C° 0 mm 2 mps 744 mmHg 95%
    02:00 +8°C° 0 mm 2 mps 745 mmHg 95%
    03:00 +8°C° 0 mm 2 mps 745 mmHg 95%
    04:00 +7°C° 0 mm 2 mps 745 mmHg 96%
    05:00 +8°C° 0 mm 2 mps 746 mmHg 95%
    06:00 +8°C° 0 mm 2 mps 746 mmHg 95%
    07:00 +8°C° 0 mm 2 mps 747 mmHg 94%
    08:00 +9°C° 0 mm 2 mps 747 mmHg 88%
    09:00 +12°C° 0 mm 2 mps 747 mmHg 81%
    10:00 +12°C° 0 mm 3 mps 747 mmHg 75%
    11:00 +13°C° 0 mm 3 mps 747 mmHg 67%
    12:00 +14°C° 0 mm 3 mps 747 mmHg 60%
    13:00 +17°C° 0 mm 3 mps 747 mmHg 52%
    14:00 +17°C° 0 mm 3 mps 747 mmHg 53%
    15:00 +17°C° 0 mm 3 mps 747 mmHg 54%
    16:00 +17°C° 0 mm 3 mps 747 mmHg 55%
    17:00 +14°C° 0 mm 3 mps 747 mmHg 64%
    18:00 +14°C° 0 mm 2 mps 747 mmHg 74%
    19:00 +12°C° 0 mm 1 mps 747 mmHg 83%
    20:00 +12°C° 0 mm 1 mps 748 mmHg 86%
    21:00 +11°C° 0 mm 1 mps 748 mmHg 88%
    22:00 +10°C° 0 mm 0 mps 748 mmHg 90%
    23:00 +10°C° 0 mm 0 mps 748 mmHg 91%

    Day after tomorrow, 23 September, Sunday

    Time Temperature Precipitation Wind Pressure Humidity
    00:00 +10°C° 0 mm 0 mps 748 mmHg 92%
    01:00 +11°C° 0 mm 1 mps 748 mmHg 92%
    02:00 +11°C° 0 mm 1 mps 748 mmHg 93%
    03:00 +11°C° 0 mm 1 mps 748 mmHg 93%
    04:00 +11°C° 0 mm 1 mps 748 mmHg 93%
    05:00 +12°C° 0 mm 1 mps 748 mmHg 93%
    06:00 +12°C° 0 mm 1 mps 748 mmHg 93%
    07:00 +13°C° 0 mm 1 mps 748 mmHg 93%
    08:00 +14°C° 0 mm 1 mps 748 mmHg 91%
    09:00 +15°C° 0 mm 1 mps 748 mmHg 88%
    10:00 +16°C° 0 mm 1 mps 748 mmHg 85%
    11:00 +18°C° 0 mm 1 mps 748 mmHg 80%
    12:00 +19°C° 0 mm 1 mps 748 mmHg 76%
    13:00 +21°C° 0 mm 1 mps 748 mmHg 71%
    14:00 +21°C° 0 mm 1 mps 747 mmHg 69%
    15:00 +21°C° 0 mm 1 mps 747 mmHg 67%
    16:00 +22°C° 0 mm 1 mps 747 mmHg 65%
    17:00 +20°C° 0 mm 1 mps 747 mmHg 72%
    18:00 +18°C° 0 mm 1 mps 747 mmHg 79%
    19:00 +14°C° 0 mm 0 mps 747 mmHg 86%
    20:00 +15°C° 0 mm 1 mps 747 mmHg 87%
    21:00 +14°C° 0 mm 1 mps 747 mmHg 88%
    22:00 +14°C° 0 mm 1 mps 747 mmHg 90%
    23:00 +14°C° 0 mm 1 mps 747 mmHg 90%

    24 September, Monday

    Time Temperature Precipitation Wind Pressure Humidity
    00:00 +13°C° 0 mm 1 mps 747 mmHg 91%
    01:00 +13°C° 0 mm 1 mps 747 mmHg 92%
    02:00 +13°C° 0 mm 1 mps 747 mmHg 92%
    03:00 +13°C° 0 mm 1 mps 746 mmHg 93%
    04:00 +12°C° 0 mm 1 mps 746 mmHg 93%
    05:00 +12°C° 0 mm 1 mps 746 mmHg 93%
    06:00 +13°C° 0 mm 2 mps 746 mmHg 92%
    07:00 +13°C° 0 mm 2 mps 746 mmHg 92%
    08:00 +14°C° 0 mm 3 mps 746 mmHg 80%
    09:00 +17°C° 0 mm 3 mps 746 mmHg 68%
    10:00 +19°C° 0 mm 4 mps 746 mmHg 56%
    11:00 +20°C° 0 mm 5 mps 745 mmHg 53%
    12:00 +21°C° 0 mm 5 mps 745 mmHg 49%
    13:00 +22°C° 0 mm 6 mps 745 mmHg 45%
    14:00 +22°C° 0 mm 5 mps 745 mmHg 46%
    15:00 +22°C° 0 mm 5 mps 744 mmHg 48%
    16:00 +22°C° 0 mm 4 mps 744 mmHg 49%
    17:00 +20°C° 0 mm 4 mps 744 mmHg 55%
    18:00 +18°C° 0 mm 3 mps 744 mmHg 61%
    19:00 +16°C° 0 mm 3 mps 744 mmHg 66%
    20:00 +16°C° 0 mm 3 mps 744 mmHg 67%
    21:00 +14°C° 0 mm 3 mps 745 mmHg 68%
    22:00 +14°C° 0 mm 3 mps 745 mmHg 68%
    23:00 +13°C° 0 mm 3 mps 745 mmHg 69%

    25 September, Tuesday

    Time Temperature Precipitation Wind Pressure Humidity
    00:00 +13°C° 0 mm 3 mps 745 mmHg 69%
    01:00 +13°C° 0 mm 3 mps 745 mmHg 70%
    02:00 +12°C° 0 mm 3 mps 745 mmHg 71%
    03:00 +12°C° 0 mm 3 mps 745 mmHg 71%
    04:00 +12°C° 0 mm 3 mps 745 mmHg 72%
    05:00 +12°C° 0 mm 3 mps 745 mmHg 71%
    06:00 +11°C° 0 mm 3 mps 745 mmHg 71%
    07:00 +11°C° 0 mm 3 mps 745 mmHg 70%
    08:00 +14°C° 0 mm 3 mps 745 mmHg 64%
    09:00 +17°C° 0 mm 4 mps 745 mmHg 57%
    10:00 +19°C° 0 mm 4 mps 745 mmHg 50%
    11:00 +20°C° 0 mm 5 mps 745 mmHg 48%
    12:00 +21°C° 0 mm 5 mps 745 mmHg 45%
    13:00 +22°C° 0 mm 6 mps 745 mmHg 42%
    14:00 +22°C° 0 mm 5 mps 745 mmHg 43%
    15:00 +21°C° 0 mm 5 mps 745 mmHg 44%
    16:00 +21°C° 0 mm 4 mps 745 mmHg 44%
    17:00 +19°C° 0 mm 4 mps 745 mmHg 48%
    18:00 +17°C° 0 mm 4 mps 745 mmHg 51%
    19:00 +14°C° 0 mm 3 mps 745 mmHg 55%
    20:00 +14°C° 0 mm 3 mps 745 mmHg 54%
    21:00 +13°C° 0 mm 3 mps 745 mmHg 53%
    22:00 +12°C° 0 mm 3 mps 746 mmHg 51%
    23:00 +12°C° 0 mm 3 mps 746 mmHg 53%

    26 September, Wednesday

    Time Temperature Precipitation Wind Pressure Humidity
    00:00 +12°C° 0 mm 3 mps 746 mmHg 54%
    01:00 +11°C° 0 mm 3 mps 746 mmHg 55%
    02:00 +11°C° 0 mm 3 mps 746 mmHg 57%
    03:00 +10°C° 0 mm 3 mps 746 mmHg 59%
    04:00 +10°C° 0 mm 3 mps 746 mmHg 60%
    05:00 +10°C° 0 mm 3 mps 747 mmHg 61%
    06:00 +10°C° 0 mm 3 mps 747 mmHg 62%
    07:00 +10°C° 0 mm 3 mps 747 mmHg 63%
    08:00 +12°C° 0 mm 3 mps 747 mmHg 56%
    09:00 +15°C° 0 mm 4 mps 747 mmHg 49%
    10:00 +19°C° 0 mm 5 mps 747 mmHg 42%
    11:00 +20°C° 0 mm 5 mps 747 mmHg 40%
    12:00 +21°C° 0 mm 5 mps 747 mmHg 37%
    13:00 +21°C° 0 mm 6 mps 747 mmHg 34%
    14:00 +21°C° 0 mm 5 mps 747 mmHg 36%
    15:00 +21°C° 0 mm 4 mps 747 mmHg 37%
    16:00 +21°C° 0 mm 3 mps 747 mmHg 39%
    17:00 +19°C° 0 mm 3 mps 747 mmHg 43%
    18:00 +17°C° 0 mm 3 mps 747 mmHg 48%
    19:00 +15°C° 0 mm 2 mps 748 mmHg 52%
    20:00 +15°C° 0 mm 2 mps 748 mmHg 53%
    21:00 +14°C° 0 mm 2 mps 748 mmHg 55%
    22:00 +13°C° 0 mm 2 mps 748 mmHg 56%
    23:00 +13°C° 0 mm 2 mps 748 mmHg 56%
    Show more